Погода Лиепая

Погода Лиепая : погода сейчас, прогноз погоды и архив. Всё, что Вы хотите узнать о погоде Лиепая!

Поиск расширенной информации на нашем сайте:

Другие новости

Новости СМИ2

Главная страница сайта

Новости сайта

03.07.2017

Напоминаем, что на нашем специализированном сайте Метеоцентр.Азия вы можете получить высокодетализированные автоматические прогнозы погоды по пунктам России, СНГ и мира в авиационном формате (включающие направление и скорость ветра, видимость, явления погоды, количество и форму облачности, нижнюю и верхнюю границу облачности).


Погода Лиепая - сегодня

Время (UTC), дата Ветер
(°,м/с) 
Видим.   Явления Облачность Т
(°С)
Тd
(°С)
f(%) Тe
(°С)
Pmin
(гПа)
dP
(гПа)
Po
(мм)
O2
(г/м3)
Тmin Tmax R s Состояние
почвы
09 18.07.17 250 (З) 5{10}  20000 м    6/4 600 м средняя 
[Cu med, cong|Ac trans]
+16.8 +11.9 73 +20  1016.6  1.1  762  286           
12 18.07.17 250 (З) 6{11}  20000 м    6/3 600 м средняя 
[Cu med, cong|Ac trans]
+16.8 +11.9 73 +20  1017.2  0.6  762  287           
15 18.07.17 250 (З) 5{10}  20000 м    8/8 660 м 
[Sc]
+17.2 +12.9 76 +22  1017.3  0.1  762  286           
18 18.07.17 250 (З) 4{10}  10 км    6/3 600 м средняя 
[Sc|Ac trans]
+16.3 +14.1 87 +23  1017.4  0.1  762  286    +17.9       
21 18.07.17 240 (ЮЗ) 10 км    ясно 
+15.4 +14 91 +23  1017.6  0.2  763  287           
00 19.07.17 230 (ЮЗ) 10 км    6/0 средняя 
[Ac trans]
+15.6 +14.4 93 +23  1017.7  0.1  763  288           
03 19.07.17 180 (Ю) 10 км    8/8 660 м 
[Sc]
+15 +14.1 94 +23  1017.7  763  288           
06 19.07.17 200 (Ю) 10 км  в посл. час ливневой дождь  8/4 600 м кучево-дожд., средняя, верхняя 
[Cb calv|Ac trans|Ci sp]
+16.3 +13.5 83 +23  1017.6  -0.1  763  287  +14.7    0.0     
09 19.07.17 210 (ЮЗ) 10 км    8/4 600 м кучево-дожд., средняя, верхняя 
[Cb calv|Ac trans|Ci sp]
+18 +15 83 +26  1018.4  0.8  763  285           
12 19.07.17 220 (ЮЗ) 10 км    6/3 1000 м кучево-дожд., средняя, верхняя 
[Cb calv|Ac trans|Ci sp]
+17.7 +14.5 82 +25  1018.3  -0.1  763  286           
15 19.07.17 250 (З) 10 км    6/4 600 м кучево-дожд., верхняя 
[Cb calv|Ci sp]
+17.9 +15.1 84 +26  1017.7  -0.6  763  285           
18 19.07.17 280 (З) 10 км    4/3 600 м кучево-дожд., верхняя 
[Cb calv|Ci fib]
+16.8 +14.9 89 +26  1017.5  -0.2  762  285    +18.9       
21 19.07.17 040 (СВ) 10 км    3/1 600 м верхняя 
[Sc|Ci fib]
+13.9 +11.2 84 +16  1017.3  -0.2  762  289           
00 20.07.17 070 (В) 10 км    3/3 300 м верхняя 
[St|Ci sp]
+11.2 +9.5 89 +12  1017  -0.3  762  293           
03 20.07.17 100 (В) 10 км    8/3 600 м кучево-дожд., средняя, верхняя 
[Cb calv|Ac trans|Ci sp]
+9.5 +8.2 92 +11  1016.6  -0.4  762  295           
06 20.07.17 090 (В) 10 км    3/0 средняя 
[Ac trans]
+15.4 +10.3 72 +17  1016.3  -0.3  762  288  +9.3         
09 20.07.17 080 (В) 20000 м    ясно 
+19.7 +7.7 46 +21  1015.8  -0.5  761  284           
12 20.07.17 310 (СЗ) 20000 м    3/3 1000 м 
[Cu hum]
+19.4 +10.6 57 +22  1015.3  -0.5  761  284           
15 20.07.17 320 (СЗ) 20000 м    6/3 1000 м средняя 
[Cu med, cong|Ac trans]
+20 +8.3 47 +20  1014.7  -0.6  760  283           
18 20.07.17 350 (С) 20000 м    1/0 средняя 
[Ac trans]
+18.5 +8.7 53 +19  1014.5  -0.2  760  285    +20.7       
21 20.07.17 050 (СВ) 10 км    ясно 
+13 +10.3 84 +15  1014.9  0.4  761  290           
00 21.07.17 090 (В) 10 км    3/0 средняя 
[Ac trans]
+11.9 +9.9 88 +14  1015.5  0.6  761  292           
03 21.07.17 100 (В) 10 км    6/0 средняя 
[Ac trans]
+10.9 +8.9 87 +12  1015.3  -0.2  761  293           
06 21.07.17 120 (ЮВ) 10 км    9/1 1000 м верхняя 
[Sc|Ci sp]
+16.8 +10.3 65 +19  1016.1  0.8  761  286  +10.7         
09 21.07.17 060 (СВ) 10 км    8/3 1000 м средняя, верхняя 
[Cu hum|Ac trans|Ci sp]
+20.8 +9.9 50 +22  1016.7  0.6  762  283           
Время (UTC), дата Ветер
(°,м/с) 
Видим.   Явления Облачность Т
(°С)
Тd
(°С)
f(%) Тe
(°С)
Pmin
(гПа)
dP
(гПа)
Po
(мм)
O2
(г/м3)
Тmin Tmax R s Состояние
почвы

Для получения пояснительной информации подведите курсор к названию столбца.

ПОГОДА Лиепая - архив

Всё, что Вы хотите узнать о погоде Лиепая - удобно и подробно!

Выберите нужную дату (начиная с 1 января 2015* года) и нажмите кнопку "Найти".
Будут отображены архивные сводки погоды по пункту Лиепая, начиная с указанной даты.


Отображать данные в формате CSV (для использования в таблицах Excel)


Внимание! Наш архив погоды предназначен исключительно для личного некоммерческого использования в познавательных целях. Если Вам необходимы официальные справки о состоянии погоды (для производственных, юридических, коммерческих и т.п. целей), обращайтесь в органы Росгидромета.

*Примечание: данная дата относится к архиву по метеостанциям СССР (Россия, СНГ, Балтия).
Архив по метеостанциям Зарубежной Европы и Азии (кроме Китая) хранится 10 дней, по другим регионам земного шара (Китай, Африка, Америка, Австралия, Океания) - 1 день.

Лиепая - район местоположения метеостанции


Название, широта, долгота, высота метеостанции:
Лиепая 56.5°ш. 21°д. 7 м над ур. моря [Латвия]

Дополнительная информация

В oтличие oт бoльшинства пoгoдных сайтoв мы публикуем пoдрoбную метеoинфoрмацию в детальнoм прoфессиoнальнoм фoрмате.

Характеристики температуры и влажнoсти вoздуха измеряются на высoте 2 м в тени вдали oт зданий и деревьев.
Скoрoсть ветра измеряется на высoте 10 м (на урoвне рoста челoвека скoрoсть ветра ниже в 1.5-2 раза). Если метеoстанция нахoдится в гoрoде или в лесу, тo скoрoсть ветра занижена на 2-4 м/с пo сравнению с oткрытым местoм. Скoрoсть ветра над акватoриями крупных рек и oзёр, а также на вершинах хoлмoв на 2-5 м/с выше, чем в oбычных услoвиях.
Атмoсфернoе давление в разных тoчках местнoсти мoжет значительнo oтличаться oт давления на метеoстанции, в зависимoсти oт услoвий рельефа (при пoдъёме на 10 м давление пoнижается примернo на 1 мм рт.ст.).